NOAA NWS Hourly Roundups by Site

Regional Weather Roundup for Upton, NY

To Select Another Site Choose from List

Select Site:  

000
ASUS41 KOKX 220014
RWROKX

Regional Weather Roundup
National Weather Service New York NY
800 PM EDT WED OCT 21 2020

Note: "FAIR" indicates few or no clouds below 12,000 feet with no
significant weather and/or obstructions to visibility.

NYZ071-072-176-178-NJZ106-104-220100-
New York City Metro Area

CITY           SKY/WX    TMP DP  RH WIND       PRES   REMARKS
Central Park   MOCLDY    64  63  96 CALM      30.25S FOG
Bronx Lehman C   N/A     64  64 100 S3          N/A
LaGuardia Arpt CLOUDY    66  62  87 SE7       30.22S FOG
Queens College   N/A     64  64 100 S5          N/A
Kennedy Intl   FOG       64  64 100 S8        30.24S VSB 1/4
Breezy Point     N/A     63 N/A N/A S8          N/A
Brooklyn Coll    N/A     63  63 100 E5          N/A
Staten Island    N/A    N/A N/A N/A S2          N/A
Newark/Liberty CLOUDY    64  63  96 SE3       30.22S FOG
Teterboro      CLEAR     66  63  90 SE3       30.21S
$$

NYZ177-179-078>081-220100-
Long Island New York

CITY           SKY/WX    TMP DP  RH WIND       PRES   REMARKS
Jones Beach      N/A     63 N/A N/A MISG        N/A
Wantagh          N/A     64  64 100 SW3         N/A
Hempstead      NOT AVBL
Matinecock Pt    N/A     64 N/A N/A SW3         N/A
Farmingdale    FOG       64  63  96 S5        30.24S VSB 1
MacArthur/ISP  FOG       63  63 100 S5        30.24R VSB 1/8
Shirley        FOG       64  62  93 S7        30.25R VSB 1/2
Mt Sinai Harb    N/A     64 N/A N/A S5          N/A
Westhampton    FOG       62  62 100 S5        30.26S VSB 1/2
East Hampton   FOG       63  63  99 SW6       30.24S VSB 1/2
Southold         N/A     63  63 100 S6          N/A
Montauk          N/A     64  64 100 VRB5      30.26S
$$

NYZ052-065-067-220100-
Hudson Valley

CITY           SKY/WX    TMP DP  RH WIND       PRES   REMARKS
White Plains     N/A     64  62  93 SE3       30.23R FOG
Larchmont Harb   N/A     64 N/A N/A SE3         N/A
Croton On Huds   N/A     66 N/A N/A CALM        N/A
Somers           N/A     64  63  94 SE1         N/A
Brewster         N/A     64  63  94 S5          N/A
Newburgh       CLOUDY    64  64 100 CALM      30.22R
Montgomery     CLOUDY    64  62  93 SW6       30.20S
Otisville        N/A     64  61  88 SW5         N/A
Warwick          N/A     64  63  94 NE2         N/A
Suffern          N/A     64  63  94 S2          N/A
Poughkeepsie   MOCLDY    64  61  90 SE3       30.20R
Albany         MOCLDY    65  61  87 S10       30.17R
$$

NJZ001-105-106-008-010-013-015-019>022-104-220100-
New Jersey

CITY           SKY/WX    TMP DP  RH WIND       PRES   REMARKS
Newark/Liberty CLOUDY    64  63  96 SE3       30.22S FOG
Teterboro      CLEAR     66  63  90 SE3       30.21S
Caldwell       CLEAR     65  62  90 CALM      30.23R
Somerville     FOG       61  60  97 CALM      30.21R VSB 1/4
Linden         FAIR      65  62  90 CALM      30.23R
Perth Amboy      N/A     63 N/A N/A SE7         N/A
Sussex         CLOUDY    64  62  93 CALM      30.23R
Andover          N/A     64  63  96 CALM      30.23R
Trenton        PTCLDY    63  63 100 CALM      30.22R FOG
Millville      CLEAR     68  64  87 VRB3      30.24R
Atlantic City  CLEAR     67  64  90 S7        30.24R
Wrightstown    PTCLDY    68  68 100 S7        30.23
Toms River     CLEAR     66  64  93 S5        30.25R
Belmar         CLEAR     66  65  96 S6        30.25R
$$

PAZ047>061-062-071-220100-
Eastern Pennsylvania

CITY           SKY/WX    TMP DP  RH WIND       PRES   REMARKS
Philadelphia   MOCLDY    72  67  84 SW3       30.23R
Allentown      CLEAR     61  60  97 CALM      30.22S
Scranton       CLEAR     68  59  73 VRB3      30.21R
$$

CTZ002-004>006-009-010-012-RIZ004-006-007-MAZ004-011-015-220100-
Southern New England

 In CT

CITY           SKY/WX    TMP DP  RH WIND       PRES   REMARKS
Bradley Intl   MOCLDY    67  62  84 S9        30.21R
Hartford       MOCLDY    68  62  81 S6        30.22R
Danbury        CLOUDY    65  63  93 VRB3      30.24R
Wtrbury/Oxford CLOUDY    64  64 100 SW6       30.25R
Norwalk Harbor   N/A     64 N/A N/A S9          N/A
Bridgeport     CLOUDY    67  64  90 S7        30.24R
Meriden        CLOUDY    66  62  87 S3        30.23S
New Haven      CLOUDY    68  65  90 S3        30.24R
Chester        CLOUDY    66  66 100 VRB5      30.25R FOG
Groton         FOG       65  64  97 S9        30.23F VSB 1
Willimantic    CLOUDY    68  63  84 S7        30.23R

 In RI

CITY           SKY/WX    TMP DP  RH WIND       PRES   REMARKS
Providence     CLOUDY    66  65  96 S6        30.24R
Block Island   LGT RAIN  63  62  97 SW8       30.26S VSB 1/2
Westerly       FOG       64  63  96 S7        30.25R VSB 3/4

In MA

CITY           SKY/WX    TMP DP  RH WIND       PRES   REMARKS
Boston         PTCLDY    63  61  93 S12       30.19S
Worcester      CLOUDY    67  60  78 SW16      30.21S
Westfield      MOCLDY    67  63  87 S13       30.19S
Provincetown   CLOUDY    63  63 100 SW12      30.24R
Nantucket      CLEAR    N/A N/A N/A VRB3      30.26S
$$

ANZ330-335-338-340-345-350-353-355-220100-
Coastal Marine Observations


STATION/POSITION TIME  SKY/WX   TEMP    WIND        PRES    VSBY  WAVE
                                AIR SEA DIR/SP/G                  HT/PER
                 (UTC)          (F)     (DEG/KT/KT) (MB)    (MI)  (FT/S)
NY Harb Entrance 2350               63  180/ 10/ 12 1023.2          3/ 9
20 S Fire Island 2350               64  190/  8/ 10 1023.6          3/ 9
Great South Bay  2330            62     210/  2/  4   N/A
23 SSW Montauk P 2350            63 63  180/  6/  8 1024.5          3/ 9
15 E Barnegat Li 2356               65                N/A           4/ 9
Hudson Canyon    2350               65              1024.8          4/ 9
Kings Point      2330            64     200/  6/  7 1024.3
Execution Rocks  2345            65     190/  6/  8   N/A
Western LI Sound NOT AVBL
Central LI Sound NOT AVBL
Robbins Reef     2330            63     170/  4/  5 1023.3
$$


>>>>>>>>>>>>>>>>>>>>>>>>>>>> KEY <<<<<<<<<<<<<<<<<<<<<<<<<<<
>                                                          <
>     SKY/WX - Sky Condition/Present Weather               <
>     TMP    - Temperature in Fahrenheit                   <
>     DP     - Dew Point in Fahrenheit                     <
>     RH     - Relative Humidity in Percent                <
>     WIND   - Direction (from) and Speed in MPH           <
>     PRES   - Mean Sea Level Pressure (inches of Hg)      <
>     WCI    - Wind Chill Index                            <
>     VSB    - Visibility in Miles                         <
>     HX     - Heat Index                                  <
>     TC     - Temperature in Celsius                      <
>     VRB    - Variable Wind Direction                     <
>                                                          <
>>>>>>>>>>>>>>>>>>>>>>>>>>>> KEY <<<<<<<<<<<<<<<<<<<<<<<<<<<


 

View Past Reports for Upton, NY.

Products Courtesy of NOAA-NWS
NWS Information Parsing Script by Ken True at Saratoga Weather - Script by SE Lincoln Weather.